FM-5

Last updated on Sat Aug 15 2026 00:02:58 GMT+0000 (Coordinated Universal Time)

1 35493U 09034A 26226.40836067 .00000000 00000+0 00000+0 0 9990 2 35493 0.0189 241.1482 0000787 146.2697 356.2638 1.00266966 47227
UTC large
Height (km)
Speed (km/s)
/
Latitude / Longitude
Inclination (degrees)
Orbital Period (minutes)
Azimuth
Elevation
Range (km)
Doppler Factor

Next 0 passes for location: London (51.5072 / 0.1276)

No passes found over London.
FM-5